Regional Weather Roundup
Issued by NWS

Home | Current Version | Previous Version | Text Only | Print | Product List | Glossary Off
Versions: 1 2 3 4 5 6 7 8 9 10 11 12 13 14 15 16 17 18 19 20 21 22 23 24 25 26 27 28 29 30 31 32 33 34 35 36 37 38 39 40 41 42 43 44 45 46 47 48 49 50

000
ASUS43 KDMX 011707
RWRIA

WEATHER ROUNDUP FOR IOWA
NATIONAL WEATHER SERVICE DES MOINES IA
1200 PM CDT MON SEP 01 2014

NOTE: "FAIR" INDICATES FEW OR NO CLOUDS BELOW 12,000 FEET WITH NO
SIGNIFICANT WEATHER AND/OR OBSTRUCTIONS TO VISIBILITY.

* - THESE STATIONS ARE NOT NWS STATIONS...THUS NOT UNDER NWS
QUALITY CONTROL.  THEY ALSO DO NOT REPORT WEATHER SUCH
AS PRECIPITATION OR FOG.

IAZ001>003-012>014-020>022-031>034-043>046-011800-
   NORTHWEST IOWA

CITY           SKY/WX    TMP DP  RH WIND       PRES   REMARKS
CARROLL *      PTSUNNY   73  64  73 W10G17    29.84R
CHEROKEE *     MOSUNNY   72  63  73 NW8       29.84R
DENISON *      PTSUNNY   72  63  73 W10G16    29.85R
LE MARS *      MOSUNNY   73  64  73 NW6G13    29.86R
ORANGE CITY *  MOSUNNY   73  63  68 W9        29.85R
SHELDON *      MOSUNNY   73  64  73 W8        29.83R
SIOUX CITY     MOSUNNY   74  64  71 W8        29.85S
SPENCER        MOSUNNY   74  62  66 NW10      29.83R
STORM LAKE *   PTSUNNY   70  70 100 NW8       29.85R
$$

IAZ055>058-069>071-079>083-090>094-011800-
   SOUTHWEST IOWA

CITY           SKY/WX    TMP DP  RH WIND       PRES   REMARKS
ATLANTIC *     MOSUNNY   73  64  73 W13       29.86R
AUDUBON *      MOSUNNY   75  68  78 W6        29.86R
CLARINDA *     MOSUNNY   75  66  73 W9        29.88R
COUNCIL BLFS * MOSUNNY   73  64  73 NW8       29.87R
CRESTON *      PTSUNNY   75  66  73 W15G21    29.85R
HARLAN  *      SUNNY     72  64  78 W9G16     29.90R
LAMONI         PTSUNNY   74  65  73 W13       29.85S
RED OAK *      MOSUNNY   75  66  73 W8G14     29.86S
SHENANDOAH *   MOSUNNY   73  64  73 VRB7      29.87S
$$

IAZ047>049-059>061-072>074-084-011800-
   CENTRAL IOWA

CITY           SKY/WX    TMP DP  RH WIND       PRES   REMARKS
AMES           MOSUNNY   76  66  71 W13G21    29.79S
ANKENY *       PTSUNNY   75  66  73 W12G20    29.79S
CHARITON *     MOSUNNY   75  66  73 W15G23    29.82S
DES MOINES     PTSUNNY   78  65  63 W15       29.79S HX  80
GRINNELL*      MOSUNNY   75  66  73 W16G23    29.80F
KNOXVILLE *    MOSUNNY   77  66  69 W16G24    29.79S
MARSHALLTOWN   MOSUNNY   75  67  76 W13       29.78R
PELLA *        MOSUNNY   77  68  73 W15G23    29.81S
PERRY *        PTSUNNY   77  64  65 W14G21    29.82R
$$

IAZ004>006-015-016-023>025-035-036-011800-
   NORTH CENTRAL IOWA

CITY           SKY/WX    TMP DP  RH WIND       PRES   REMARKS
ALGONA *       MOSUNNY   73  63  68 NW13      29.80R
CLARION *      PTSUNNY   70  66  88 NW9       29.79R
ESTHERVILLE    MOSUNNY   71  61  70 NW6G17    29.81R
FORT DODGE *   PTSUNNY   73  64  73 W13       29.82R
MASON CITY     LGT RAIN  70  64  81 NW9       29.79R
FOREST CITY *  PTSUNNY   72  64  78 NW12G17   29.79R
IOWA FALLS *   CLOUDY    72  64  78 SW13      29.80R
$$

IAZ007>011-017>019-026>030-037>042-050>054-066-011800-
   NORTHEAST IOWA

CITY           SKY/WX    TMP DP  RH WIND       PRES   REMARKS
CEDAR RAPIDS   MOSUNNY   75  67  76 W15       29.76F
CHARLES CITY * PTSUNNY   72  66  83 W9        29.77R
CLINTON *      MOSUNNY   79  66  65 W13G20    29.79F HX  81
DECORAH *      CLOUDY    72  66  83 W8        29.73S
DUBUQUE        PTSUNNY   73  66  78 W15       29.77S
MONTICELLO *   CLOUDY    75  68  78 W14G21    29.76F
OELWEIN *      PTSUNNY   75  68  78 W14       29.77R
WATERLOO       PTSUNNY   76  66  71 W18       29.75S
$$

IAZ064-065-067-068-078-011800-
   EAST CENTRAL IOWA

CITY           SKY/WX    TMP DP  RH WIND       PRES   REMARKS
DAVENPORT      SUNNY     78  66  66 SW13G29   29.79S HX  80
IOWA CITY      SUNNY     79  68  69 W16       29.78F HX  81
MT. PLEASANT * MOSUNNY   79  63  57 SW10G20   29.82R HX  80
MUSCATINE *    SUNNY     79  64  61 W17G30    29.79S HX  81
QUAD CITIES    MOSUNNY   78  65  63 SW16G23   29.78S HX  80
$$

IAZ062-063-075>077-085>089-095>099-011800-
   SOUTHEAST IOWA

CITY           SKY/WX    TMP DP  RH WIND       PRES   REMARKS
BURLINGTON     LGT RAIN  75  65  70 W9        29.83R
FAIRFIELD *    MOSUNNY   75  64  69 W13G22    29.81S
FORT MADISON * PTSUNNY   75  66  73 SW5       29.84R
KEOKUK *       PTSUNNY   75  66  73 W13       29.84R
OSKALOOSA *    PTSUNNY   75  68  78 W17       29.80S
CENTERVILLE *  MOSUNNY   75  66  73 SW13G22   29.85R
OTTUMWA        PTSUNNY   77  67  71 W17G25    29.79F
WASHINGTON *   SUNNY     77  68  73 W15G24    29.80R
$$

ABBREVIATIONS USED IN REMARKS
   TC - TEMPERATURES IN CELSIUS
  WCI - WIND CHILL INDEX
   HX - HEAT INDEX
  VSB - VISIBILITY
$$




USA.gov is the U.S. government's official web portal to all federal, state and local government web resources and services.